1504242000.15,17444,24.06,74306.0,12.63,-17.41,-17.97,0,*42
1504242001.44,17445,24.0,74302.0,12.63,-17.55,-17.97,0,*46
1504242002.7,17446,24.06,74304.0,12.65,-17.45,-17.93,0,*46
1504242003.97,17447,24.06,74302.5,12.65,-17.17,-17.59,0,*46
1504242005.2,17448,24.06,74302.0,12.65,-17.17,-17.73,0,*41
1504242006.44,17449,24.06,74302.8,12.65,-17.21,-17.73,0,*45
1504242007.66,17450,24.06,74302.0,12.65,-17.35,-17.87,0,*43
1504242008.89,17451,24.06,74300.5,12.65,-17.21,-17.73,0,*4C
1504242010.1,17452,24.06,74302.5,12.65,-17.31,-17.87,0,*45
1504242011.33,17453,24.06,74302.8,12.65,-17.63,-18.21,0,*40
1504242012.54,17454,24.06,74302.3,12.65,-17.31,-17.73,0,*48
1504242013.77,17455,24.06,74300.3,12.65,-17.35,-17.93,0,*43
1504242015.02,17456,24.06,74302.5,12.65,-17.35,-17.97,0,*44
1504242016.29,17457,24.06,74306.0,12.67,-17.41,-17.87,0,*45
1504242017.57,17458,24.06,74302.3,12.67,-17.59,-18.01,0,*42
1504242018.8,17459,24.06,74298.8,12.67,-17.31,-17.83,0,*48
1504242020.09,17460,24.06,74300.3,12.67,-17.55,-18.01,0,*45
1504242021.36,17461,24.06,74304.0,12.67,-17.41,-17.87,0,*40
1504242022.59,17462,24.06,74304.5,12.67,-17.31,-17.87,0,*44
1504242023.85,17463,24.06,74304.0,12.67,-17.25,-17.73,0,*4B
1504242025.08,17464,24.06,74302.5,12.69,-17.17,-17.69,0,*48
1504242026.31,17465,24.06,74300.8,12.69,-17.25,-17.73,0,*43
1504242027.55,17466,24.06,74300.0,12.67,-17.31,-17.87,0,*40
1504242028.75,17467,24.06,74302.3,12.69,-17.31,-17.83,0,*4B
1504242029.98,17468,24.06,74300.5,12.69,-17.25,-17.73,0,*4E
1504242031.18,17469,24.06,74304.3,12.69,-17.31,-17.83,0,*45
1504242032.39,17470,24.06,74300.5,12.69,-17.31,-17.87,0,*49
1504242033.62,17471,24.06,74300.8,12.69,-17.25,-17.83,0,*49
1504242034.83,17472,24.06,74306.0,12.69,-17.31,-17.87,0,*4B
1504242036.09,17473,24.06,74302.8,12.73,-17.55,-18.01,0,*42
1504242037.34,17474,24.06,74304.0,12.73,-17.21,-17.79,0,*46
1504242038.57,17475,24.06,74302.3,12.73,-17.11,-17.69,0,*45
1504242039.8,17476,24.06,74300.8,12.69,-17.25,-17.73,0,*41
1504242041.07,17477,24.06,74306.5,12.73,-17.41,-17.97,0,*43
1504242042.3,17478,24.06,74300.8,12.75,-17.35,-17.83,0,*4C
1504242043.56,17479,24.06,74302.3,12.73,-17.25,-17.79,0,*4F
1504242044.8,17480,24.06,74304.8,12.73,-17.35,-17.97,0,*48
1504242046.04,17481,24.06,74300.8,12.73,-17.25,-17.69,0,*49
1504242047.27,17482,24.06,74302.0,12.73,-17.21,-17.83,0,*4A
1504242048.51,17483,24.06,74300.5,12.73,-17.25,-17.83,0,*4F
1504242049.75,17484,24.06,74304.3,12.73,-17.49,-17.97,0,*47
1504242051.03,17485,24.06,74304.0,12.75,-17.21,-17.79,0,*4E
1504242052.26,17486,24.06,74300.5,12.75,-17.35,-17.83,0,*4D
1504242053.48,17487,24.06,74302.5,12.73,-17.49,-17.87,0,*45
1504242054.73,17488,24.06,74302.8,12.75,-17.21,-17.73,0,*49
1504242055.98,17489,24.06,74304.8,12.75,-17.31,-17.79,0,*43
1504242057.26,17490,24.06,74302.3,12.75,-17.17,-17.79,0,*4F
1504242058.49,17491,24.06,74302.5,12.75,-17.35,-17.83,0,*4B
1504242059.78,17492,24.06,74300.5,12.75,-17.17,-17.79,0,*4D
1504242061.02,17493,24.06,74300.5,12.75,-17.31,-17.79,0,*48
1504242062.27,17494,24.06,74302.5,12.75,-17.31,-17.79,0,*4F
1504242063.53,17495,24.06,74302.5,12.77,-17.45,-17.97,0,*4F
1504242064.75,17496,24.06,74302.8,12.77,-17.35,-17.83,0,*4E
1504242065.97,17497,24.06,74302.3,12.77,-17.21,-17.73,0,*45
1504242067.23,17498,24.06,74304.5,12.77,-17.21,-17.79,0,*40
1504242068.43,17499,24.06,74302.0,12.77,-17.31,-17.83,0,*45
1504242069.69,17500,24.06,74300.0,12.79,-17.25,-17.73,0,*40
1504242070.92,17501,24.06,74304.0,12.77,-17.25,-17.83,0,*40
1504242072.16,17502,24.06,74304.8,12.77,-17.21,-17.83,0,*47
1504242073.43,17503,24.06,74302.5,12.79,-17.11,-17.59,0,*4C
1504242074.69,17504,24.06,74302.8,12.77,-17.17,-17.59,0,*43
1504242075.95,17505,24.06,74304.8,12.79,-17.25,-17.87,0,*4E
1504242077.2,17506,24.06,74302.8,12.79,-17.31,-17.79,0,*49
1504242078.45,17507,24.06,74302.8,12.79,-17.31,-17.79,0,*48
1504242079.71,17508,24.06,74300.8,12.79,-17.41,-17.87,0,*41
1504242080.98,17509,24.06,74300.5,12.79,-17.25,-17.79,0,*43
1504242082.25,17510,24.06,74304.3,12.79,-17.41,-17.87,0,*48
1504242083.47,17511,24.06,74300.0,12.79,-17.31,-17.83,0,*4A
1504242084.73,17512,24.06,74302.0,12.79,-17.59,-18.07,0,*44
1504242085.96,17513,24.06,74302.5,12.77,-17.17,-17.69,0,*46
1504242087.19,17514,24.06,74304.0,12.77,-17.21,-17.73,0,*4F
1504242088.47,17515,24.06,74300.3,12.79,-17.45,-17.93,0,*4C
1504242089.74,17516,24.06,74300.3,12.79,-17.45,-17.93,0,*4F
1504242090.97,17517,24.06,74300.3,12.81,-17.31,-17.79,0,*4E
1504242092.2,17518,24.06,74304.3,12.81,-17.17,-17.73,0,*4F
1504242093.43,17519,24.06,74304.8,12.81,-17.31,-17.79,0,*40
1504242094.68,17520,24.06,74302.8,12.81,-17.17,-17.79,0,*4E
1504242095.89,17521,24.06,74302.8,12.81,-16.97,-17.49,0,*45
1504242097.14,17522,24.06,74302.3,12.81,-17.11,-17.59,0,*48
1504242098.37,17523,24.06,74300.5,12.81,-17.17,-17.73,0,*47
1504242099.59,17524,24.06,74304.0,12.83,-17.73,-18.25,0,*4C
1504242100.84,17525,24.06,74300.5,12.83,-17.25,-17.73,0,*42
1504242102.09,17526,24.06,74302.3,12.83,-17.11,-17.73,0,*46
1504242103.36,17527,24.06,74304.3,12.83,-17.11,-17.63,0,*46
1504242104.59,17528,24.06,74302.5,12.81,-17.59,-18.17,0,*4B
1504242105.82,17529,24.06,74300.5,12.81,-17.73,-18.31,0,*46
1504242107.05,17530,24.06,74302.5,12.81,-17.25,-17.73,0,*44
1504242108.3,17531,24.06,74300.3,12.83,-17.25,-17.73,0,*47
1504242109.56,17532,24.06,74300.0,12.81,-17.41,-17.93,0,*4A
1504242110.81,17533,24.06,74306.3,12.83,-17.21,-17.73,0,*41
1504242112.08,17534,24.06,74300.8,12.83,-17.55,-18.01,0,*4F
1504242113.36,17535,24.06,74302.3,12.83,-17.11,-17.63,0,*45
1504242114.58,17536,24.06,74300.8,12.81,-17.11,-17.69,0,*4E
1504242115.86,17537,24.06,74306.0,12.83,-17.11,-17.63,0,*47
1504242117.11,17538,24.06,74302.0,12.85,-17.07,-17.63,0,*49
1504242118.34,17539,24.06,74300.3,12.85,-17.17,-17.69,0,*43
1504242119.6,17540,24.06,74304.8,12.87,-17.45,-18.07,0,*4F
1504242120.83,17541,24.06,74300.8,12.85,-17.35,-17.79,0,*4D
1504242122.1,17542,24.06,74302.0,12.87,-17.03,-17.63,0,*42
1504242123.38,17543,24.06,74302.5,12.87,-17.03,-17.45,0,*47
1504242124.63,17544,24.06,74306.5,12.87,-16.89,-17.41,0,*47
1504242125.86,17545,24.06,74302.3,12.85,-17.35,-17.79,0,*49
1504242127.14,17546,24.06,74302.5,12.87,-17.11,-17.63,0,*45
1504242128.36,17547,24.06,74302.5,12.85,-17.17,-17.73,0,*41
1504242129.61,17548,24.06,74300.8,12.85,-17.07,-17.63,0,*4E
1504242130.82,17549,24.06,74302.3,12.85,-17.35,-17.83,0,*40
1504242132.1,17550,24.06,74302.3,12.87,-17.45,-17.93,0,*4C
1504242133.35,17551,24.06,74302.3,12.87,-17.31,-17.79,0,*4A
1504242134.58,17552,24.06,74304.8,12.87,-17.31,-17.87,0,*48
1504242135.85,17553,24.06,74302.8,12.87,-17.17,-17.63,0,*47
1504242137.11,17554,24.06,74304.5,12.87,-17.17,-17.73,0,*41
1504242138.36,17555,24.06,74306.0,12.87,-17.25,-17.73,0,*41
1504242139.64,17556,24.06,74300.3,12.87,-17.17,-17.63,0,*42
1504242140.92,17557,24.06,74304.5,12.87,-17.03,-17.59,0,*4F
1504242142.15,17558,24.06,74304.8,12.89,-17.31,-17.79,0,*4D
1504242143.39,17559,24.06,74302.3,12.89,-17.41,-17.87,0,*4A
1504242144.65,17560,24.06,74304.8,12.89,-17.17,-17.59,0,*40
1504242145.91,17561,24.06,74300.5,12.89,-17.03,-17.59,0,*44
1504242147.14,17562,24.06,74300.8,12.89,-16.97,-17.59,0,*4B
1504242148.4,17563,24.06,74306.5,12.91,-17.25,-17.83,0,*4C
1504242149.66,17564,24.06,74304.8,12.89,-17.59,-18.01,0,*4C
1504242150.91,17565,24.06,74304.8,12.89,-17.25,-17.63,0,*4D
1504242152.17,17566,24.06,74304.5,12.89,-17.25,-17.63,0,*4E
1504242153.39,17567,24.06,74306.0,12.91,-16.97,-17.49,0,*46
1504242154.65,17568,24.06,74306.8,12.89,-17.11,-17.59,0,*4E
1504242155.91,17569,24.06,74302.5,12.91,-17.25,-17.83,0,*46
1504242157.11,17570,24.06,74304.0,12.95,-16.93,-17.35,0,*4B
1504242158.35,17571,24.06,74306.0,12.91,-17.35,-17.83,0,*4E
1504242159.58,17572,24.06,74302.0,12.91,-16.97,-17.49,0,*42
1504242160.85,17573,24.06,74306.0,12.91,-17.07,-17.55,0,*46
1504242162.11,17574,24.06,74304.3,12.91,-17.49,-17.97,0,*45
1504242163.34,17575,24.06,74300.3,12.95,-17.21,-17.69,0,*4F
1504242164.6,17576,24.06,74302.3,12.97,-17.21,-17.69,0,*4E
1504242165.86,17577,24.06,74300.8,12.95,-17.21,-17.79,0,*4C
1504242167.11,17578,24.06,74302.3,12.95,-17.07,-17.55,0,*49
1504242168.4,17579,24.06,74304.0,12.97,-17.03,-17.63,0,*4B
1504242169.63,17580,24.06,74306.0,12.95,-17.03,-17.49,0,*47
1504242170.88,17581,24.06,74302.3,12.97,-17.31,-17.79,0,*46
1504242172.14,17582,24.06,74300.3,12.95,-17.21,-17.63,0,*4D
1504242173.36,17583,24.06,74304.8,12.95,-17.07,-17.49,0,*40
1504242174.63,17584,24.06,74304.0,12.99,-17.25,-17.59,0,*4A
1504242175.89,17585,24.06,74304.5,12.99,-17.41,-17.93,0,*4F
1504242177.13,17586,24.06,74306.5,12.97,-17.35,-17.83,0,*40
1504242178.4,17587,24.06,74302.0,12.97,-17.35,-17.79,0,*44
1504242179.68,17588,24.06,74304.5,12.97,-17.45,-17.93,0,*48
1504242180.94,17589,24.06,74304.5,12.97,-17.63,-18.07,0,*4F
1504242182.18,17590,24.06,74306.3,12.97,-17.35,-17.83,0,*47
1504242183.44,17591,24.06,74304.8,12.97,-17.21,-17.69,0,*47
1504242184.7,17592,24.06,74302.0,12.97,-17.31,-17.79,0,*44
1504242185.95,17593,24.06,74304.8,12.97,-17.31,-17.79,0,*45
1504242187.21,17594,24.06,74304.3,12.97,-17.35,-17.93,0,*42
1504242188.48,17595,24.06,74302.3,12.99,-17.03,-17.59,0,*4E
1504242189.73,17596,24.06,74306.5,12.99,-17.11,-17.59,0,*4E
1504242191.0,17597,24.06,74300.8,12.99,-17.45,-18.01,0,*4C
1504242192.26,17598,24.06,74304.3,12.99,-17.11,-17.63,0,*49
1504242193.51,17599,24.06,74304.0,12.99,-17.11,-17.63,0,*48
1504242194.78,17600,24.06,74302.5,12.99,-17.11,-17.59,0,*42
1504242196.03,17601,24.06,74302.5,13.01,-17.03,-17.49,0,*41
1504242197.28,17602,24.06,74306.0,12.99,-17.41,-17.87,0,*46
1504242198.54,17603,24.06,74304.0,13.01,-17.49,-18.01,0,*4E
1504242199.82,17604,24.06,74306.0,13.01,-17.17,-17.63,0,*49
1504242201.11,17605,24.06,74304.0,13.01,-17.17,-17.63,0,*48
1504242202.4,17606,24.06,74300.3,13.01,-17.17,-17.63,0,*4B
1504242203.64,17607,24.06,74304.5,12.99,-17.45,-17.87,0,*47
1504242204.93,17608,24.06,74306.5,13.01,-17.17,-17.63,0,*45
1504242206.19,17609,24.06,74302.5,13.01,-17.03,-17.49,0,*49
1504242207.44,17610,24.06,74302.5,13.01,-17.25,-17.73,0,*4C
1504242208.73,17611,24.06,74306.0,13.01,-17.11,-17.59,0,*42
1504242209.99,17612,24.06,74302.8,13.01,-17.41,-17.87,0,*47
1504242211.25,17613,24.06,74304.0,13.01,-17.31,-17.79,0,*40
1504242212.53,17614,24.06,74304.8,13.01,-17.17,-17.63,0,*48
1504242213.79,17615,24.06,74304.8,13.01,-17.63,-18.21,0,*43
1504242215.0,17616,24.06,74300.5,13.03,-17.35,-17.87,0,*42
1504242216.23,17617,24.06,74308.3,13.03,-17.59,-18.25,0,*4E
1504242217.48,17618,24.06,74304.8,13.03,-17.59,-18.01,0,*47
1504242218.68,17619,24.06,74306.0,13.03,-16.93,-17.49,0,*42
1504242219.94,17620,24.06,74306.5,13.03,-17.07,-17.59,0,*45
1504242221.18,17621,24.06,74300.8,13.03,-17.21,-17.69,0,*43
1504242222.47,17622,24.06,74300.8,13.05,-17.17,-17.63,0,*49
1504242223.7,17623,24.06,74304.0,13.03,-17.21,-17.69,0,*41
1504242224.99,17624,24.06,74306.5,13.05,-17.17,-17.63,0,*4F
1504242226.25,17625,24.06,74302.3,13.05,-17.21,-17.69,0,*41
1504242227.5,17626,24.06,74300.5,13.03,-17.11,-17.59,0,*44
1504242228.76,17627,24.06,74302.5,13.05,-17.03,-17.49,0,*41
1504242230.02,17628,24.06,74302.5,13.05,-17.17,-17.49,0,*4B
1504242231.25,17629,24.06,74304.5,13.05,-16.93,-17.49,0,*47
1504242232.49,17630,24.06,74304.3,13.05,-17.69,-18.11,0,*49
1504242233.75,17631,24.06,74306.0,13.05,-17.21,-17.69,0,*44
1504242234.98,17632,24.06,74306.5,13.07,-17.21,-17.69,0,*45
1504242236.22,17633,24.06,74300.3,13.07,-17.55,-18.11,0,*47
1504242237.49,17634,24.06,74302.0,13.07,-17.41,-17.97,0,*44
1504242238.75,17635,24.06,74300.8,13.07,-17.17,-17.55,0,*48
1504242240.0,17636,24.06,74306.0,13.09,-17.11,-17.49,0,*4E
1504242241.24,17637,24.06,74302.5,13.09,-17.49,-18.07,0,*47
1504242242.5,17638,24.06,74304.5,13.07,-17.41,-17.79,0,*48
1504242243.76,17639,24.06,74306.8,13.07,-17.03,-17.41,0,*44
1504242245.02,17640,24.06,74302.0,13.09,-16.89,-17.45,0,*43
1504242246.3,17641,24.06,74302.8,13.09,-17.17,-17.63,0,*40
1504242247.56,17642,24.06,74306.3,13.07,-17.07,-17.55,0,*49
1504242248.81,17643,24.06,74306.5,13.09,-17.31,-17.79,0,*4D
1504242250.06,17644,24.06,74304.0,13.09,-17.35,-17.87,0,*4F
1504242251.34,17645,24.06,74302.0,13.09,-17.45,-17.93,0,*4C
1504242252.62,17646,24.06,74302.5,13.09,-17.25,-17.63,0,*46
1504242253.9,17647,24.06,74300.0,13.09,-17.11,-17.45,0,*44
1504242255.15,17648,24.06,74306.5,13.09,-17.35,-17.87,0,*43
1504242256.44,17649,24.06,74306.3,13.09,-17.17,-17.59,0,*41
1504242257.69,17650,24.06,74304.5,13.11,-17.07,-17.55,0,*4D
1504242258.92,17651,24.06,74304.5,13.11,-16.97,-17.45,0,*45
1504242260.15,17652,24.06,74306.3,13.11,-16.97,-17.45,0,*46
1504242261.37,17653,24.06,74302.0,13.11,-16.93,-17.41,0,*47
1504242262.63,17654,24.06,74302.0,13.13,-17.21,-17.73,0,*4B
1504242263.89,17655,24.06,74306.0,13.13,-17.41,-17.87,0,*47
1504242265.15,17656,24.06,74304.5,13.13,-16.97,-17.41,0,*44
1504242266.43,17657,24.06,74306.3,13.13,-17.11,-17.55,0,*4F
1504242267.66,17658,24.06,74306.0,13.13,-17.31,-17.83,0,*49
1504242268.87,17659,24.06,74304.5,13.11,-17.31,-17.87,0,*4E
1504242270.09,17660,24.06,74306.0,13.11,-16.97,-17.45,0,*47
1504242271.35,17661,24.06,74304.0,13.13,-16.97,-17.45,0,*44
1504242272.63,17662,24.06,74306.0,13.17,-17.03,-17.55,0,*4E
1504242273.91,17663,24.06,74300.8,13.17,-17.21,-17.79,0,*41
1504242275.16,17664,24.06,74306.8,13.17,-17.49,-17.93,0,*4C
1504242276.43,17665,24.06,74304.3,13.17,-17.03,-17.55,0,*49
1504242277.71,17666,24.06,74304.0,13.17,-17.03,-17.41,0,*4F
1504242278.94,17667,24.06,74306.3,13.17,-16.89,-17.35,0,*4E
1504242280.22,17668,24.06,74304.0,13.17,-17.07,-17.55,0,*40
1504242281.47,17669,24.06,74304.5,13.19,-17.11,-17.59,0,*44
1504242282.75,17670,24.13,74308.5,13.17,-17.17,-17.63,0,*4D
1504242284.03,17671,24.06,74302.5,13.17,-17.07,-17.55,0,*48
1504242285.31,17672,24.06,74306.0,13.17,-17.07,-17.63,0,*4E
1504242286.53,17673,24.06,74302.5,13.19,-16.97,-17.45,0,*4D
1504242287.82,17674,24.06,74304.8,13.21,-17.03,-17.45,0,*4D
1504242289.04,17675,24.06,74304.3,13.21,-16.89,-17.49,0,*43
1504242290.28,17676,24.06,74304.3,13.21,-17.35,-17.87,0,*44
1504242291.51,17677,24.06,74306.5,13.21,-16.97,-17.49,0,*4E
1504242292.79,17678,24.06,74302.3,13.21,-17.21,-17.63,0,*45
1504242294.07,17679,24.06,74306.0,13.21,-17.11,-17.59,0,*4E
1504242295.3,17680,24.06,74304.3,13.23,-17.11,-17.69,0,*49
1504242296.55,17681,24.06,74304.0,13.21,-17.21,-17.73,0,*42
1504242297.8,17682,24.06,74306.3,13.21,-17.31,-17.79,0,*4A
1504242299.04,17683,24.06,74302.8,13.23,-17.25,-17.83,0,*49
1504242300.29,17684,24.06,74304.8,13.23,-17.11,-17.59,0,*4E
1504242301.52,17685,24.06,74306.0,13.23,-16.97,-17.55,0,*4C
1504242302.8,17686,24.06,74306.0,13.21,-17.03,-17.45,0,*40
1504242304.0,17687,24.06,74306.8,13.23,-16.83,-17.31,0,*49
1504242305.23,17688,24.06,74304.3,13.23,-16.93,-17.41,0,*40
1504242306.45,17689,24.06,74306.3,13.23,-16.93,-17.45,0,*45
1504242307.71,17690,24.06,74304.8,13.25,-17.07,-17.55,0,*46
1504242308.94,17691,24.06,74304.8,13.25,-16.97,-17.55,0,*4F
1504242310.19,17692,24.06,74304.0,13.27,-16.89,-17.41,0,*44
1504242311.42,17693,24.06,74306.0,13.25,-16.97,-17.55,0,*4D
1504242312.68,17694,24.06,74304.5,13.25,-17.07,-17.55,0,*42
1504242313.95,17695,24.06,74306.5,13.27,-17.03,-17.55,0,*45
1504242315.2,17696,24.06,74306.3,13.27,-17.07,-17.49,0,*4F
1504242316.48,17697,24.06,74306.0,13.27,-17.03,-17.63,0,*42
1504242317.75,17698,24.06,74308.5,13.27,-17.11,-17.63,0,*4E
1504242318.98,17699,24.06,74306.5,13.25,-17.11,-17.69,0,*47
1504242320.21,17700,24.06,74306.8,13.29,-17.07,-17.49,0,*4F
1504242321.41,17701,24.06,74306.0,13.29,-16.97,-17.49,0,*46
1504242322.65,17702,24.06,74306.0,13.29,-17.03,-17.35,0,*42
1504242323.88,17703,24.06,74308.3,13.29,-17.03,-17.49,0,*48
1504242325.09,17704,24.06,74308.8,13.29,-16.97,-17.35,0,*48
1504242326.32,17705,24.06,74306.0,13.29,-17.03,-17.49,0,*4E
1504242327.52,17706,24.06,74306.8,13.29,-16.97,-17.49,0,*41
1504242328.76,17707,24.06,74306.5,13.29,-17.17,-17.73,0,*40
1504242330.04,17708,24.06,74306.3,13.31,-17.11,-17.59,0,*48
1504242331.27,17709,24.06,74306.3,13.29,-16.93,-17.41,0,*42
1504242332.52,17710,24.06,74306.3,13.31,-16.83,-17.45,0,*46
1504242333.78,17711,24.06,74304.3,13.31,-16.97,-17.41,0,*46
1504242335.04,17712,24.06,74306.3,13.31,-16.97,-17.59,0,*4C
1504242336.29,17713,24.06,74304.3,13.31,-17.25,-17.73,0,*4D
1504242337.55,17714,24.06,74304.3,13.29,-17.45,-17.93,0,*4B
1504242338.83,17715,24.06,74306.8,13.31,-17.11,-17.59,0,*44
1504242340.07,17716,24.06,74304.0,13.31,-17.31,-17.87,0,*46
1504242341.32,17717,24.06,74308.3,13.31,-17.25,-17.73,0,*49
1504242342.58,17718,24.06,74306.3,13.31,-16.97,-17.55,0,*4A
1504242343.83,17719,24.06,74306.8,13.31,-16.97,-17.45,0,*4A
1504242345.06,17720,24.06,74306.0,13.33,-17.17,-17.69,0,*45
1504242346.3,17721,24.06,74306.0,13.31,-17.31,-17.83,0,*46
1504242347.55,17722,24.06,74304.5,13.33,-17.45,-17.93,0,*45
1504242348.81,17723,24.06,74308.3,13.33,-17.17,-17.59,0,*45
1504242350.03,17724,24.06,74306.3,13.35,-16.97,-17.49,0,*4C
1504242351.26,17725,24.06,74306.8,13.33,-17.17,-17.73,0,*4B
1504242352.49,17726,24.06,74304.8,13.33,-16.97,-17.41,0,*40
1504242353.69,17727,24.06,74304.3,13.33,-17.31,-17.83,0,*42
1504242354.94,17728,24.06,74304.5,13.33,-17.11,-17.59,0,*48
1504242356.14,17729,24.06,74306.0,13.33,-17.31,-17.83,0,*4C
1504242357.42,17730,24.06,74304.3,13.35,-17.07,-17.63,0,*49
1504242358.65,17731,24.13,74310.3,13.35,-16.89,-17.35,0,*4C
1504242359.88,17732,24.06,74306.5,13.33,-17.25,-17.73,0,*4C
1504242361.13,17733,24.06,74306.3,13.35,-17.25,-17.83,0,*44
1504242362.36,17734,24.06,74306.8,13.35,-16.97,-17.49,0,*4D
1504242363.58,17735,24.06,74306.8,13.37,-16.97,-17.55,0,*43
1504242364.83,17736,24.13,74308.5,13.37,-17.07,-17.63,0,*4D
1504242366.06,17737,24.06,74304.3,13.37,-16.93,-17.41,0,*40
1504242367.31,17738,24.06,74304.3,13.37,-17.07,-17.63,0,*43
1504242368.57,17739,24.06,74304.3,13.41,-17.07,-17.59,0,*4A
1504242369.79,17740,24.06,74306.0,13.37,-17.11,-17.69,0,*41
1504242371.02,17741,24.06,74306.3,13.37,-17.07,-17.69,0,*47
1504242372.28,17742,24.06,74304.8,13.41,-17.03,-17.59,0,*42
1504242373.54,17743,24.06,74304.3,13.41,-17.07,-17.63,0,*4E
1504242374.79,17744,24.06,74304.5,13.41,-17.21,-17.79,0,*46
1504242376.05,17745,24.06,74308.0,13.37,-17.07,-17.63,0,*49
1504242377.27,17746,24.06,74306.0,13.41,-17.03,-17.49,0,*47
1504242378.47,17747,24.06,74304.3,13.41,-17.31,-17.73,0,*4E
1504242379.73,17748,24.06,74304.3,13.41,-17.45,-17.93,0,*4C
1504242380.95,17749,24.06,74306.0,13.41,-17.11,-17.49,0,*4B
1504242382.15,17750,24.13,74308.3,13.41,-16.93,-17.49,0,*48
1504242383.41,17751,24.06,74308.5,13.41,-17.21,-17.79,0,*42
1504242384.66,17752,24.06,74308.3,13.41,-17.07,-17.63,0,*4E
1504242385.89,17753,24.06,74304.3,13.37,-17.11,-17.69,0,*43
1504242387.14,17754,24.13,74310.8,13.37,-17.21,-17.79,0,*46
1504242388.37,17755,24.06,74306.0,13.41,-17.17,-17.73,0,*49
1504242389.63,17756,24.06,74306.5,13.41,-17.03,-17.59,0,*47
1504242390.89,17757,24.06,74306.5,13.41,-17.17,-17.63,0,*4A
1504242392.15,17758,24.06,74306.3,13.41,-17.07,-17.59,0,*4D
1504242393.4,17759,24.06,74304.3,13.43,-16.97,-17.45,0,*4B
1504242394.65,17760,24.06,74306.8,13.43,-16.89,-17.41,0,*4A
1504242395.9,17761,24.06,74304.0,13.43,-16.97,-17.45,0,*40
1504242397.15,17762,24.06,74306.3,13.43,-16.89,-17.41,0,*48
1504242398.38,17763,24.06,74306.0,13.45,-16.89,-17.41,0,*4F
1504242399.6,17764,24.06,74308.3,13.45,-17.11,-17.69,0,*42
1504242400.83,17765,24.06,74306.0,13.45,-16.89,-17.45,0,*4D
1504242402.05,17766,24.06,74306.5,13.45,-16.69,-17.31,0,*43
1504242403.28,17767,24.06,74304.5,13.45,-16.89,-17.45,0,*4F
1504242404.54,17768,24.06,74304.3,13.45,-17.25,-17.79,0,*48
1504242405.76,17769,24.06,74304.8,13.45,-17.11,-17.69,0,*4F
1504242406.99,17770,24.06,74302.5,13.45,-17.17,-17.69,0,*41
1504242408.22,17771,24.06,74304.5,13.45,-17.31,-17.79,0,*45
1504242409.47,17772,24.06,74304.5,13.45,-17.25,-17.79,0,*43
1504242410.75,17773,24.06,74304.0,13.47,-17.07,-17.63,0,*4B
1504242412.0,17774,24.06,74304.0,13.47,-17.11,-17.73,0,*4A
1504242413.28,17775,24.06,74306.0,13.47,-17.07,-17.59,0,*44
1504242414.52,17776,24.06,74306.3,13.45,-17.41,-17.87,0,*44
1504242415.74,17777,24.06,74306.0,13.45,-17.03,-17.69,0,*43
1504242416.97,17778,24.06,74300.8,13.45,-17.17,-17.73,0,*42
1504242418.23,17779,24.06,74304.0,13.47,-17.07,-17.69,0,*4B
1504242419.5,17780,24.06,74304.5,13.47,-17.11,-17.63,0,*40
1504242420.76,17781,24.06,74304.5,13.47,-17.49,-18.01,0,*47
1504242422.0,17782,24.06,74304.0,13.47,-17.35,-17.87,0,*4E
1504242423.27,17783,24.06,74306.5,13.47,-17.07,-17.63,0,*44
1504242424.53,17784,24.06,74304.8,13.47,-17.25,-17.73,0,*42
1504242425.81,17785,24.06,74306.3,13.47,-17.07,-17.55,0,*47
1504242427.05,17786,24.06,74306.5,13.47,-16.93,-17.55,0,*48
1504242428.28,17787,24.06,74306.8,13.47,-16.97,-17.49,0,*40
1504242429.56,17788,24.06,74306.8,13.47,-17.07,-17.63,0,*4F
1504242430.81,17789,24.06,74306.0,13.47,-17.21,-17.73,0,*4B
1504242432.07,17790,24.06,74302.3,13.49,-17.07,-17.59,0,*41
1504242433.34,17791,24.13,74308.5,13.51,-17.03,-17.59,0,*4D
1504242434.6,17792,24.06,74304.5,13.51,-17.21,-17.69,0,*4D
1504242435.85,17793,24.06,74304.3,13.49,-17.17,-17.59,0,*43
1504242437.05,17794,24.06,74300.5,13.49,-16.89,-17.31,0,*4C
1504242438.28,17795,24.06,74306.5,13.49,-17.21,-17.69,0,*43
1504242439.53,17796,24.06,74306.5,13.49,-17.21,-17.63,0,*4A
1504242440.78,17797,24.06,74306.3,13.51,-17.07,-17.69,0,*4C
1504242442.06,17798,24.06,74306.8,13.51,-17.07,-17.63,0,*49
1504242443.31,17799,24.06,74306.0,13.51,-17.03,-17.49,0,*44
1504242444.56,17800,24.06,74304.8,13.47,-16.97,-17.63,0,*48
1504242445.76,17801,24.06,74304.5,13.49,-17.31,-17.83,0,*44
1504242446.99,17802,24.06,74306.5,13.53,-17.21,-17.73,0,*42
1504242448.23,17803,24.06,74306.5,13.51,-17.79,-18.25,0,*40
1504242449.48,17804,24.06,74304.0,13.51,-17.21,-17.69,0,*4D
1504242450.7,17805,24.06,74306.8,13.51,-17.31,-17.69,0,*4D
1504242451.98,17806,24.06,74304.3,13.51,-17.17,-17.79,0,*4B
1504242453.22,17807,24.06,74304.5,13.51,-17.31,-17.79,0,*4E
1504242454.5,17808,24.06,74306.3,13.51,-17.21,-17.63,0,*4B
1504242455.78,17809,24.06,74306.8,13.51,-17.03,-17.59,0,*43
1504242457.03,17810,24.06,74304.3,13.53,-17.25,-17.79,0,*4F
1504242458.29,17811,24.06,74304.5,13.53,-17.03,-17.59,0,*48
1504242459.57,17812,24.06,74304.3,13.51,-17.03,-17.45,0,*44
1504242460.79,17813,24.06,74306.8,13.53,-16.89,-17.45,0,*44
1504242462.02,17814,24.06,74306.0,13.53,-16.97,-17.55,0,*4D
1504242463.25,17815,24.06,74306.8,13.53,-16.97,-17.45,0,*4D
1504242464.49,17816,24.06,74306.3,13.53,-16.75,-17.11,0,*43
1504242465.74,17817,24.06,74304.8,13.53,-17.25,-17.79,0,*48
1504242467.0,17818,24.06,74300.5,13.55,-17.55,-18.11,0,*47
1504242468.23,17819,24.06,74304.0,13.53,-17.25,-17.73,0,*4C
1504242469.45,17820,24.13,74308.3,13.53,-17.31,-17.79,0,*49
1504242470.68,17821,24.06,74306.0,13.53,-17.11,-17.73,0,*40
1504242471.93,17822,24.06,74300.3,13.55,-16.97,-17.55,0,*4E
1504242473.21,17823,24.06,74306.0,13.55,-17.07,-17.59,0,*4B
1504242474.46,17824,24.06,74306.0,13.55,-16.93,-17.55,0,*4C
1504242475.71,17825,24.06,74304.3,13.55,-17.21,-17.69,0,*4A
1504242476.99,17826,24.06,74304.5,13.55,-17.07,-17.59,0,*4E
1504242478.25,17827,24.06,74304.5,13.55,-17.11,-17.69,0,*4B
1504242479.53,17828,24.06,74306.0,13.55,-17.07,-17.59,0,*40
1504242480.75,17829,24.06,74304.0,13.55,-16.83,-17.49,0,*4D
1504242482.01,17830,24.06,74304.3,13.55,-17.07,-17.69,0,*4A
1504242483.26,17831,24.06,74306.5,13.55,-17.07,-17.73,0,*40
1504242484.52,17832,24.06,74306.3,13.57,-16.93,-17.41,0,*4C
1504242485.8,17833,24.06,74304.5,13.57,-17.11,-17.59,0,*4F
1504242487.06,17834,24.06,74304.0,13.57,-17.59,-18.11,0,*47
1504242488.33,17835,24.06,74304.5,13.57,-17.21,-17.83,0,*4D
1504242489.59,17836,24.06,74304.3,13.55,-17.07,-17.83,0,*48
1504242490.85,17837,24.06,74304.8,13.57,-17.21,-17.69,0,*4B
1504242492.13,17838,24.06,74306.3,13.57,-17.11,-17.59,0,*44
1504242493.39,17839,24.06,74306.8,13.55,-17.49,-17.97,0,*48
1504242494.64,17840,24.06,74304.0,13.55,-16.97,-17.55,0,*4A
1504242495.9,17841,24.06,74304.5,13.55,-17.41,-17.87,0,*4E
1504242497.19,17842,24.06,74304.3,13.57,-17.41,-18.01,0,*4E
1504242498.45,17843,24.06,74306.3,13.57,-17.25,-17.73,0,*47